| time (UTC) | temp C | wind direction | speed KPH | gust KPH | rain 1hr cm | rain 24hr cm | rain mn cm | humidity % | barometer mb |
| 20260505184310 | 12 | 336 | 0.0 | 0.0 | 0.00 | 0.00 | 0.00 | 85 | 1021.1 |
| 20260505181310 | 12 | 336 | 0.0 | 0.0 | 0.00 | 0.00 | 0.00 | 83 | 1020.9 |
| 20260505174310 | 12 | 336 | 0.0 | 3.2 | 0.00 | 0.00 | 0.00 | 82 | 1021.0 |
| 20260505171310 | 12 | 334 | 0.0 | 3.2 | 0.00 | 0.00 | 0.00 | 83 | 1021.2 |
| 20260505164310 | 12 | 65 | 0.0 | 3.2 | 0.00 | 0.00 | 0.00 | 83 | 1021.3 |
| 20260505161310 | 12 | 65 | 0.0 | 0.0 | 0.00 | 0.00 | 0.00 | 82 | 1021.3 |
| 20260505151310 | 11 | 65 | 0.0 | 0.0 | 0.00 | 0.00 | 0.00 | 83 | 1021.7 |
| 20260505124310 | 12 | 65 | 0.0 | 3.2 | 0.00 | 0.00 | 0.00 | 73 | 1021.5 |
| 20260505121310 | 13 | 65 | 0.0 | 0.0 | 0.00 | 0.00 | 0.00 | 70 | 1021.5 |
| 20260505114310 | 13 | 83 | 0.0 | 0.0 | 0.00 | 0.00 | 0.00 | 68 | 1021.3 |
| 20260505111310 | 13 | 71 | 0.0 | 0.0 | 0.00 | 0.00 | 0.00 | 65 | 1021.0 |
| 20260505101310 | 15 | 256 | 0.0 | 0.0 | 0.00 | 0.00 | 0.00 | 57 | 1020.5 |
| 20260505094310 | 16 | 210 | 1.6 | 3.2 | 0.00 | 0.00 | 0.00 | 53 | 1020.2 |
| 20260505091310 | 17 | 238 | 3.2 | 16.1 | 0.00 | 0.00 | 0.00 | 47 | 1019.8 |
| 20260505084310 | 19 | 44 | 0.0 | 9.7 | 0.00 | 0.00 | 0.00 | 42 | 1019.5 |
| 20260505081310 | 19 | 360 | 3.2 | 9.7 | 0.00 | 0.00 | 0.00 | 43 | 1019.4 |
| 20260505074310 | 20 | 55 | 4.8 | 9.7 | 0.00 | 0.00 | 0.00 | 41 | 1019.3 |
| 20260505071310 | 21 | 92 | 6.4 | 19.3 | 0.00 | 0.00 | 0.00 | 44 | 1019.1 |
| 20260505064310 | 21 | 8 | 3.2 | 9.7 | 0.00 | 0.00 | 0.00 | 42 | 1018.7 |
| 20260505061310 | 22 | 81 | 8.0 | 22.5 | 0.00 | 0.00 | 0.00 | 39 | 1018.3 |
| 20260505054310 | 22 | 85 | 3.2 | 9.7 | 0.00 | 0.00 | 0.00 | 38 | 1018.1 |
| 20260505051310 | 23 | 329 | 3.2 | 19.3 | 0.00 | 0.00 | 0.00 | 37 | 1018.2 |
| 20260505041310 | 23 | 39 | 0.0 | 6.4 | 0.00 | 0.00 | 0.00 | 30 | 1018.4 |
| 20260505034310 | 23 | 139 | 0.0 | 3.2 | 0.00 | 0.00 | 0.00 | 30 | 1018.5 |
| 20260505031310 | 22 | 331 | 0.0 | 3.2 | 0.00 | 0.00 | 0.00 | 29 | 1018.4 |
| 20260505024310 | 22 | 83 | 0.0 | 0.0 | 0.00 | 0.00 | 0.00 | 29 | 1018.5 |
| 20260505021310 | 22 | 154 | 0.0 | 3.2 | 0.00 | 0.00 | 0.00 | 32 | 1018.5 |
| 20260505014310 | 20 | 326 | 0.0 | 3.2 | 0.00 | 0.00 | 0.00 | 36 | 1018.6 |
| 20260505011310 | 20 | 292 | 1.6 | 9.7 | 0.00 | 0.00 | 0.00 | 35 | 1018.3 |
| 20260505004310 | 20 | 334 | 0.0 | 3.2 | 0.00 | 0.00 | 0.00 | 35 | 1018.2 |
| 20260505001310 | 18 | 335 | 0.0 | 3.2 | 0.00 | 0.00 | 0.00 | 38 | 1018.2 |
| 20260504234310 | 17 | 339 | 0.0 | 3.2 | 0.00 | 0.00 | 0.00 | 42 | 1018.0 |
| 20260504231310 | 16 | 327 | 0.0 | 3.2 | 0.00 | 0.00 | 0.00 | 46 | 1018.1 |
| 20260504224310 | 16 | 245 | 0.0 | 3.2 | 0.00 | 0.00 | 0.00 | 50 | 1017.7 |
| 20260504221310 | 13 | 334 | 0.0 | 0.0 | 0.00 | 0.00 | 0.00 | 62 | 1017.7 |
| 20260504214310 | 10 | 341 | 0.0 | 0.0 | 0.00 | 0.00 | 0.00 | 62 | 1014.9 |
| 20260504211310 | 10 | 341 | 0.0 | 0.0 | 0.00 | 0.00 | 0.00 | 62 | 1014.9 |
| 20260504204310 | 10 | 341 | 0.0 | 0.0 | 0.00 | 0.00 | 0.00 | 62 | 1014.9 |
| 20260504201310 | 10 | 341 | 0.0 | 0.0 | 0.00 | 0.00 | 0.00 | 62 | 1014.9 |
| 20260504194310 | 11 | 334 | 0.0 | 0.0 | 0.00 | 0.00 | 0.00 | 62 | 1014.6 |
| 20260504191310 | 11 | 334 | 0.0 | 0.0 | 0.00 | 0.00 | 0.00 | 61 | 1014.0 |